Wind_Speed
13 12 11 10 11 10 11 12 12 12 11 11 10 10 9 9 8 8 7 8 7 7 6 6 7 7 8 8 9 9 9 8 7 7 6 7 7 7 7 7 6 6 5 5 5 5 5 5 5
11 11 11 12 11 11 11 12 13 12 11 11 11 10 10 9 9 8 8 8 7 6 6 6 7 7 7 8 8 8 7 8 7 6 6 6 7 7 7 6 5 5 5 4 5 5 5 5 5
11 12 12 13 12 11 12 12 12 12 11 11 11 10 9 9 9 9 8 7 6 6 6 6 7 7 7 7 7 7 6 6 6 6 6 6 6 6 6 5 4 4 4 4 4 4 4 4 4
12 13 13 13 13 13 12 12 12 12 12 11 11 10 9 8 9 8 7 7 6 5 6 7 7 7 6 6 6 6 6 6 6 5 5 5 5 5 5 5 4 4 4 4 4 3 3 2 3
13 13 13 13 14 13 13 13 13 13 12 12 11 10 9 8 7 7 7 7 6 6 6 6 7 7 6 6 6 6 7 6 5 5 4 5 4 5 5 5 5 4 4 3 3 3 3 3 3
13 13 14 14 14 14 14 13 13 13 12 12 11 10 9 8 7 7 6 6 6 6 6 7 7 7 6 6 6 6 6 6 5 4 4 4 4 4 5 4 4 4 4 3 3 3 3 3 3
13 14 14 15 15 15 15 14 14 13 12 12 11 10 9 8 7 7 6 6 6 6 6 6 7 7 6 6 5 6 6 5 5 4 4 4 4 3 4 4 4 3 3 3 3 3 3 3 3
12 13 14 15 15 15 16 15 14 14 12 10 10 10 9 8 7 7 7 6 6 6 6 6 6 6 6 6 5 5 5 5 4 4 4 3 3 3 3 3 3 3 3 3 3 3 3 3 2
11 12 13 14 15 16 16 16 14 13 12 11 10 10 9 8 7 7 7 7 7 7 7 6 6 6 6 5 5 4 4 4 4 4 3 3 3 3 3 2 2 3 3 3 2 3 2 3 2
9 10 12 13 15 16 16 16 15 14 13 12 11 10 10 9 8 8 7 7 7 7 7 6 5 5 5 5 4 4 4 4 4 4 4 3 2 2 2 2 2 2 2 2 2 2 2 2 2
7 10 11 12 14 15 15 16 15 14 14 12 11 11 10 9 9 8 8 7 7 7 7 6 5 5 5 4 4 4 4 4 4 4 3 3 3 2 2 2 2 2 2 2 2 1 1 1 2
8 10 11 12 12 13 14 15 15 15 14 12 11 10 10 10 9 8 8 7 7 7 6 6 5 5 4 4 3 3 4 4 4 3 3 3 3 2 2 2 2 1 0 1 2 1 2 1 2
9 10 11 11 11 12 13 14 14 14 14 12 12 11 10 9 9 8 8 7 6 6 5 5 5 4 4 4 3 3 3 4 4 3 3 2 2 2 2 2 2 1 0 1 1 1 2 2 2
9 10 10 11 12 12 12 13 13 13 13 12 11 10 10 10 9 9 8 7 7 6 5 5 4 4 4 4 4 4 3 4 3 3 3 2 2 2 2 2 2 2 1 1 1 1 2 3 3
8 9 9 10 11 11 11 12 12 12 12 11 11 10 10 9 9 8 8 8 7 7 6 5 5 4 4 4 3 3 3 3 3 2 2 2 2 2 2 2 1 2 2 2 2 2 2 3 4
5 6 6 6 8 8 9 10 10 10 10 10 10 10 9 9 9 8 8 7 7 7 6 6 5 4 4 3 3 2 2 2 2 2 2 2 1 1 1 1 2 2 3 3 3 2 2 3 4
3 3 3 3 5 6 6 7 8 9 9 9 9 9 9 8 8 8 8 7 7 6 6 6 5 5 4 3 2 2 2 1 1 1 1 0 0 1 1 1 2 2 4 4 3 2 3 4 4
3 2 2 1 3 3 4 4 6 7 7 7 7 7 8 7 7 8 7 6 6 6 6 5 4 4 4 3 2 1 1 1 1 0 1 1 1 1 2 2 2 3 3 4 4 3 3 4 5
6 5 3 2 1 2 2 2 3 4 4 5 6 5 6 6 6 6 6 6 6 5 6 5 3 3 3 2 1 1 1 1 1 1 1 1 1 2 2 3 3 4 4 4 4 3 4 4 5
7 6 5 4 4 3 1 1 2 3 3 3 3 3 3 3 4 4 4 5 5 5 5 4 3 2 1 1 1 1 1 1 2 1 1 2 2 3 3 4 5 5 4 4 4 5 5 5 6
9 8 7 7 7 6 4 3 3 3 2 3 2 1 2 2 2 3 3 3 4 5 5 4 3 3 1 1 1 1 1 1 2 2 2 3 4 4 5 5 5 6 6 5 5 6 6 6 6
10 10 10 8 8 8 7 6 4 4 3 3 3 3 3 3 3 2 3 3 3 4 5 4 4 3 2 2 2 1 1 2 2 3 3 4 5 5 6 6 7 7 8 8 7 7 7 8 8
13 11 11 10 9 10 9 8 6 6 4 4 5 5 4 4 3 3 3 3 4 4 4 5 4 4 3 3 3 3 4 4 4 5 5 5 6 6 6 7 8 9 9 10 9 9 9 9 9
14 13 13 13 12 12 11 10 7 6 5 5 6 6 5 5 4 4 4 4 4 5 5 6 5 5 5 5 5 5 5 6 7 7 7 7 8 8 8 9 10 10 10 10 11 11 11 11 10
15 14 14 15 15 13 12 12 8 7 7 7 7 6 6 6 5 5 6 5 5 6 6 7 7 7 7 7 7 7 7 8 9 10 9 9 10 11 11 12 12 12 12 13 13 14 13 13 13
17 16 16 16 16 14 14 13 10 9 8 8 8 7 7 7 7 6 6 7 7 8 8 8 9 8 8 9 9 9 9 10 10 11 12 12 13 13 13 14 15 15 15 15 16 16 15 14 15
17 17 17 17 17 17 17 15 12 10 9 10 9 9 9 8 8 8 9 9 9 9 10 10 11 10 10 9 10 10 11 11 12 12 14 15 16 16 16 17 17 17 18 18 18 17 17 17 17
18 18 18 18 18 18 18 16 14 12 11 11 11 11 10 10 10 10 11 11 12 12 12 11 12 13 12 11 11 12 12 13 14 14 15 16 17 18 18 19 19 19 20 20 20 20 20 20 19
21 21 21 20 20 20 19 17 15 14 14 14 13 12 12 12 12 12 12 13 14 13 13 13 13 14 13 13 14 14 15 16 16 17 18 19 20 20 20 21 22 22 22 23 22 22 21 22 22
22 22 23 23 22 23 22 19 17 17 16 16 16 15 14 14 14 14 14 15 15 14 15 14 14 14 14 16 16 17 18 18 19 20 21 22 23 23 24 24 25 25 24 25 25 24 24 24 24
Wind_Direction
78 79 79 78 78 73 73 73 68 64 68 70 68 65 65 67 74 82 84 82 83 90 104 102 102 104 102 95 91 90 92 90 92 96 95 94 93 92 98 99 101 100 95 96 95 96 90 92 94
79 78 80 78 76 72 72 73 66 64 66 66 64 63 62 67 75 85 88 83 89 94 101 99 99 99 98 96 90 90 93 95 95 95 90 86 88 93 95 97 94 95 96 94 94 94 90 91 93
76 79 78 77 78 74 71 72 68 65 65 64 62 59 60 67 74 83 88 91 97 97 96 98 97 97 96 93 87 90 91 91 91 96 87 85 89 91 93 88 81 88 97 100 96 93 96 95 92
75 77 73 72 73 73 71 72 71 64 61 61 60 59 61 67 75 79 84 94 100 101 100 101 102 99 97 94 91 94 91 88 89 93 86 88 91 93 90 86 83 93 98 101 101 96 101 95 87
75 74 70 69 67 70 71 70 69 64 61 60 60 59 61 66 76 80 87 94 102 105 101 102 105 102 100 95 93 94 92 91 91 92 87 90 89 88 88 86 85 93 100 109 112 107 100 86 88
75 74 71 69 66 69 69 66 66 60 59 58 58 60 61 67 74 78 90 98 102 106 99 96 104 104 102 92 89 89 94 94 91 92 93 89 84 86 82 83 85 86 94 101 109 100 92 95 94
78 75 74 74 71 69 67 64 63 58 54 51 53 58 64 65 69 75 90 94 97 102 99 97 107 102 99 96 93 95 96 96 96 94 95 91 82 84 80 83 86 85 86 85 90 83 85 91 90
80 77 76 74 71 68 64 59 56 54 50 52 54 56 63 63 67 75 83 87 92 96 101 104 108 102 101 101 106 109 106 99 101 98 92 96 89 85 76 84 82 83 82 83 85 80 68 66 71
81 76 76 74 70 67 63 58 54 53 50 52 58 59 64 65 67 74 80 87 94 95 97 98 104 101 97 102 111 120 115 110 106 105 93 94 92 89 84 89 68 71 64 67 85 82 69 55 46
82 74 75 71 71 66 62 60 55 54 54 57 61 65 67 65 67 71 79 90 99 101 102 101 101 100 98 102 105 110 116 110 105 101 94 93 92 97 92 76 56 71 59 53 58 68 72 53 31
83 77 75 73 73 69 62 58 56 58 54 56 61 65 67 65 67 71 78 89 98 102 102 102 95 90 90 93 96 104 113 111 108 102 88 89 90 85 71 66 53 77 74 55 45 46 45 28 4
88 79 72 68 68 67 64 59 56 56 57 59 60 60 62 64 68 69 77 86 94 101 103 98 99 94 92 94 99 111 117 122 117 102 82 85 80 69 64 74 54 72 77 38 24 14 356 348 350
95 82 73 69 65 65 62 59 59 55 56 62 63 60 61 64 65 66 68 74 85 95 99 101 101 95 90 92 98 119 124 129 126 109 91 77 54 62 72 64 70 65 23 324 336 335 329 325 325
103 88 76 71 66 62 59 56 56 54 56 59 64 61 58 61 60 61 61 67 78 86 93 98 91 91 87 88 94 110 110 111 109 100 89 66 50 60 73 95 69 46 16 319 304 315 313 321 318
109 96 82 71 66 61 57 55 51 52 55 57 61 62 59 59 57 57 59 64 73 77 83 83 82 88 84 80 92 106 106 109 100 90 80 70 74 78 73 85 59 30 5 337 298 287 283 307 317
115 105 85 73 67 59 54 52 51 54 54 57 57 56 55 57 58 58 58 62 66 69 73 77 78 82 79 80 93 96 102 98 85 90 81 83 86 85 68 50 17 356 335 326 317 305 301 313 317
147 116 99 74 60 53 55 57 57 53 52 51 52 55 56 55 58 57 56 60 58 62 64 75 78 77 76 79 80 89 115 93 83 72 58 119 84 355 294 327 335 338 338 336 327 307 305 307 308
197 183 161 92 44 44 48 60 57 49 47 43 44 55 58 56 55 56 57 54 49 49 50 60 70 72 74 73 73 48 77 73 34 321 293 292 271 284 281 293 303 324 333 338 323 304 307 306 309
225 219 206 201 318 353 42 69 51 39 36 31 31 46 59 59 54 51 49 46 43 42 39 35 49 54 70 70 60 35 0 331 290 298 283 289 290 300 292 296 297 309 313 318 320 314 314 312 305
227 230 234 241 264 283 280 332 342 1 3 5 16 37 51 50 43 43 40 40 39 34 31 26 26 19 36 45 50 37 354 317 289 288 270 272 276 287 291 298 300 300 306 310 312 309 303 305 306
231 237 247 251 260 269 271 278 289 304 326 337 335 355 357 354 10 24 23 28 25 21 18 15 14 9 1 359 342 9 6 337 306 284 267 270 274 277 282 283 286 289 291 300 306 306 295 291 293
236 244 253 257 258 267 273 271 270 271 292 309 301 299 310 324 328 337 358 9 8 7 2 358 356 2 351 313 313 311 323 308 297 287 281 272 272 275 277 282 285 287 288 287 290 290 292 289 287
240 248 254 256 260 266 272 273 265 263 273 287 289 290 301 307 318 316 329 334 341 343 339 342 337 331 327 313 294 291 292 291 293 289 281 279 279 281 283 287 289 288 288 287 287 293 292 288 282
241 249 254 257 262 266 271 274 273 269 272 277 281 288 291 294 296 302 299 303 313 318 319 322 320 314 306 299 291 284 283 284 285 284 279 279 284 286 287 289 288 287 288 291 292 294 293 291 286
244 248 255 260 262 266 269 270 276 277 275 278 274 277 279 279 277 280 290 294 299 305 308 310 306 300 297 293 288 281 274 278 280 282 281 282 286 287 288 290 292 288 286 287 289 291 290 292 293
246 250 257 265 267 268 268 269 273 277 276 273 272 278 276 276 277 273 279 286 293 297 299 301 299 295 293 293 287 281 276 276 282 281 280 285 286 285 286 289 290 290 285 285 286 287 284 286 288
245 252 258 264 270 272 271 271 270 273 278 274 275 276 274 272 275 272 275 281 287 291 293 295 293 286 285 295 293 287 285 286 285 286 286 287 289 286 284 285 286 288 286 286 285 283 281 282 285
248 251 256 260 270 273 272 272 272 273 277 276 275 275 268 275 280 275 274 279 284 286 288 290 295 296 291 289 288 288 288 287 286 285 287 289 289 287 285 284 284 283 284 284 285 282 279 279 281
249 251 256 260 265 270 273 275 274 277 277 277 276 274 275 279 282 285 283 282 285 284 284 288 293 293 290 286 286 288 289 288 287 286 286 286 286 287 285 284 283 281 279 279 283 283 279 278 279
250 253 258 261 265 267 272 275 272 275 277 277 277 280 279 276 277 281 283 287 286 281 284 284 287 288 288 286 286 287 289 288 288 288 286 285 286 285 285 284 283 283 280 278 279 280 279 279 281
Height
5891 5891 5892 5892 5892 5891 5890 5890 5889 5889 5889 5889 5889 5889 5888 5889 5890 5892 5890 5889 5889 5890 5890 5890 5891 5891 5891 5892 5892 5893 5893 5894 5894 5895 5895 5896 5896 5897 5898 5898 5899 5899 5899 5900 5900 5900 5900 5900 5901
5894 5893 5894 5894 5893 5892 5892 5891 5891 5890 5890 5890 5890 5890 5890 5889 5889 5890 5890 5890 5891 5891 5891 5892 5892 5892 5892 5893 5893 5894 5894 5895 5895 5896 5897 5897 5897 5898 5899 5899 5899 5900 5900 5901 5901 5901 5901 5901 5901
5896 5896 5896 5895 5894 5894 5894 5893 5892 5892 5891 5891 5891 5891 5891 5891 5891 5891 5891 5891 5892 5892 5892 5893 5893 5893 5894 5894 5894 5895 5895 5896 5896 5897 5898 5898 5898 5899 5899 5900 5900 5900 5901 5901 5902 5902 5902 5902 5902
5898 5899 5898 5897 5896 5895 5895 5894 5894 5893 5893 5893 5893 5893 5892 5892 5892 5892 5892 5892 5893 5893 5893 5894 5894 5894 5895 5895 5895 5896 5896 5897 5897 5898 5898 5899 5899 5900 5900 5900 5901 5901 5901 5902 5902 5902 5903 5903 5903
5900 5900 5900 5898 5897 5897 5896 5895 5895 5895 5895 5894 5894 5894 5893 5893 5893 5893 5893 5893 5894 5894 5894 5894 5895 5895 5896 5896 5896 5897 5897 5898 5898 5899 5899 5900 5900 5901 5901 5901 5902 5902 5902 5902 5902 5903 5903 5903 5903
5903 5902 5901 5900 5899 5899 5898 5897 5897 5897 5896 5896 5895 5895 5895 5895 5894 5894 5894 5894 5895 5895 5895 5895 5896 5896 5897 5897 5897 5898 5898 5898 5899 5899 5900 5900 5901 5901 5902 5902 5902 5903 5903 5903 5903 5903 5903 5904 5904
5905 5904 5902 5902 5901 5901 5900 5899 5898 5898 5898 5897 5896 5896 5896 5896 5896 5895 5895 5895 5896 5896 5896 5896 5897 5897 5897 5898 5898 5898 5899 5899 5900 5900 5901 5901 5902 5902 5902 5903 5903 5903 5903 5904 5904 5904 5904 5904 5904
5906 5906 5904 5904 5903 5903 5902 5901 5900 5899 5899 5898 5898 5897 5897 5897 5897 5897 5896 5896 5897 5897 5897 5897 5898 5898 5898 5898 5899 5899 5900 5900 5900 5901 5901 5902 5902 5902 5903 5903 5904 5904 5904 5904 5904 5904 5904 5904 5904
5908 5908 5906 5906 5905 5905 5903 5903 5902 5901 5900 5899 5899 5899 5898 5898 5898 5897 5897 5897 5897 5898 5898 5898 5899 5899 5899 5899 5899 5900 5900 5900 5901 5901 5902 5902 5903 5903 5903 5904 5904 5904 5905 5904 5904 5904 5905 5905 5905
5910 5909 5909 5908 5907 5906 5905 5904 5903 5902 5901 5901 5900 5900 5899 5899 5899 5898 5898 5898 5898 5899 5899 5899 5899 5899 5900 5900 5900 5900 5900 5901 5901 5902 5902 5902 5903 5903 5903 5904 5904 5905 5905 5905 5905 5905 5905 5905 5905
5911 5911 5910 5909 5909 5908 5907 5906 5905 5904 5903 5902 5902 5901 5901 5901 5900 5900 5899 5899 5899 5899 5900 5900 5900 5900 5900 5900 5900 5901 5901 5901 5902 5902 5902 5903 5903 5903 5904 5904 5905 5905 5905 5905 5905 5905 5906 5906 5906
5913 5912 5912 5911 5910 5909 5909 5908 5907 5906 5905 5904 5903 5903 5902 5902 5902 5901 5901 5901 5900 5900 5901 5901 5901 5901 5901 5901 5901 5901 5901 5902 5902 5903 5903 5903 5903 5904 5904 5904 5905 5905 5905 5905 5905 5906 5906 5906 5906
5914 5914 5913 5912 5912 5911 5911 5910 5909 5908 5907 5906 5905 5905 5904 5904 5903 5903 5902 5902 5901 5901 5902 5902 5902 5902 5902 5902 5902 5901 5902 5902 5903 5903 5903 5904 5904 5904 5904 5905 5905 5905 5905 5905 5905 5905 5905 5905 5905
5915 5915 5914 5914 5913 5913 5912 5912 5911 5910 5909 5908 5907 5907 5906 5905 5905 5904 5904 5903 5903 5903 5903 5902 5902 5903 5903 5902 5902 5903 5903 5903 5903 5903 5904 5904 5904 5904 5904 5905 5905 5905 5905 5905 5905 5905 5905 5905 5905
5915 5916 5916 5915 5915 5914 5914 5914 5912 5912 5911 5910 5909 5909 5908 5907 5907 5906 5905 5905 5904 5904 5904 5903 5903 5903 5903 5903 5903 5903 5904 5904 5904 5904 5904 5905 5905 5905 5905 5905 5905 5905 5905 5904 5904 5904 5905 5905 5905
5916 5917 5917 5917 5916 5915 5916 5915 5914 5913 5913 5912 5911 5911 5910 5909 5908 5908 5907 5907 5906 5906 5905 5905 5904 5904 5904 5904 5904 5904 5904 5904 5904 5905 5905 5905 5905 5905 5906 5906 5905 5905 5904 5904 5904 5904 5904 5904 5904
5917 5917 5917 5917 5917 5916 5916 5915 5915 5914 5914 5913 5912 5912 5911 5910 5909 5909 5908 5908 5907 5907 5906 5905 5905 5905 5905 5905 5905 5905 5905 5905 5905 5905 5905 5905 5905 5905 5906 5906 5906 5905 5905 5904 5904 5904 5904 5904 5904
5917 5917 5917 5917 5917 5917 5916 5916 5916 5915 5915 5914 5913 5913 5912 5911 5911 5910 5910 5909 5908 5908 5907 5906 5906 5906 5905 5905 5905 5905 5905 5905 5905 5905 5905 5905 5905 5905 5905 5905 5905 5905 5905 5904 5903 5903 5903 5903 5903
5916 5917 5917 5917 5917 5917 5916 5916 5916 5916 5915 5915 5914 5913 5913 5912 5912 5911 5910 5910 5909 5908 5907 5907 5906 5906 5906 5905 5905 5905 5905 5905 5905 5905 5905 5905 5905 5905 5905 5905 5905 5905 5904 5904 5903 5903 5902 5902 5901
5915 5916 5916 5917 5917 5916 5916 5916 5916 5916 5916 5915 5915 5914 5913 5913 5912 5911 5910 5910 5909 5908 5908 5907 5907 5906 5906 5906 5905 5905 5905 5905 5905 5905 5905 5905 5904 5904 5904 5904 5904 5904 5904 5903 5902 5902 5901 5900 5900
5915 5915 5916 5916 5916 5915 5916 5916 5916 5916 5916 5915 5915 5914 5913 5912 5912 5911 5910 5910 5909 5908 5908 5907 5907 5906 5905 5906 5905 5905 5905 5905 5905 5905 5904 5904 5904 5904 5903 5903 5903 5903 5902 5902 5901 5900 5899 5899 5898
5913 5914 5914 5914 5914 5914 5915 5915 5916 5915 5915 5915 5914 5914 5913 5912 5911 5910 5910 5909 5909 5908 5908 5907 5907 5906 5905 5905 5905 5905 5905 5904 5904 5904 5904 5904 5903 5903 5902 5902 5902 5901 5901 5900 5899 5898 5897 5897 5896
5911 5912 5912 5912 5912 5913 5913 5913 5915 5914 5914 5914 5914 5913 5912 5911 5911 5910 5909 5909 5908 5908 5907 5907 5906 5906 5905 5905 5905 5904 5904 5904 5904 5903 5903 5902 5902 5901 5901 5900 5900 5900 5899 5898 5897 5896 5895 5894 5894
5909 5910 5910 5910 5911 5911 5912 5911 5913 5912 5913 5913 5912 5912 5911 5910 5910 5909 5909 5908 5907 5907 5906 5906 5906 5905 5904 5904 5903 5903 5903 5903 5903 5902 5901 5901 5900 5900 5899 5899 5898 5897 5897 5896 5895 5894 5893 5892 5891
5907 5908 5908 5908 5908 5909 5909 5909 5911 5910 5911 5911 5911 5910 5909 5909 5908 5908 5907 5907 5907 5906 5905 5905 5904 5903 5903 5902 5902 5901 5901 5901 5901 5900 5900 5899 5898 5898 5897 5896 5896 5895 5894 5893 5892 5891 5890 5889 5888
5904 5905 5906 5906 5906 5907 5907 5907 5909 5908 5908 5908 5909 5908 5908 5907 5906 5906 5906 5905 5905 5904 5903 5903 5902 5901 5901 5900 5899 5899 5899 5898 5898 5898 5897 5896 5896 5895 5894 5894 5893 5892 5891 5890 5889 5888 5887 5886 5885
5901 5902 5903 5903 5903 5903 5904 5904 5906 5905 5906 5906 5906 5906 5905 5905 5904 5904 5903 5903 5903 5902 5901 5900 5899 5899 5898 5898 5897 5896 5896 5896 5895 5895 5894 5893 5892 5892 5891 5890 5889 5888 5887 5886 5885 5884 5883 5882 5881
5898 5898 5899 5899 5899 5899 5900 5901 5902 5902 5903 5903 5904 5903 5903 5902 5902 5901 5901 5900 5900 5899 5898 5897 5897 5896 5895 5894 5894 5893 5893 5892 5891 5891 5890 5889 5889 5888 5887 5886 5885 5883 5882 5882 5881 5880 5878 5878 5877
5894 5895 5895 5895 5895 5896 5896 5899 5899 5898 5899 5900 5900 5900 5900 5900 5899 5898 5897 5897 5896 5895 5895 5894 5893 5892 5892 5891 5890 5890 5889 5888 5887 5887 5886 5885 5884 5883 5882 5881 5880 5878 5877 5876 5875 5874 5873 5872 5871
5889 5890 5891 5892 5891 5891 5891 5896 5894 5894 5895 5896 5896 5896 5896 5896 5895 5895 5894 5893 5892 5892 5891 5890 5889 5888 5888 5887 5886 5885 5884 5883 5883 5882 5881 5880 5879 5878 5876 5875 5874 5873 5872 5871 5870 5869 5868 5866 5865